User: anonymous   Login
Location: Unspecified
(0.0000°N, 0.0000°E)
Time: 22:56:52
(UTC+00:00)
Language:

Elektron 1 - Orbit

View from above orbital plane
View from above orbital plane
View from above satellite
View from above satellite

Ground track
Ground track

The orbit data is extracted from the following two-line orbital elements,

1 00746U 64006A   18261.48993569  .00000812  00000-0  24420-3 0  9990
2 00746  60.8623  30.3043 3028612 224.0487 107.5320  9.03512592811011
Epoch (UTC): 18 September 2018 11:45:30
Eccentricity: 0.3028612
inclination: 60.8623°
perigee height: 410 km
apogee height: 6308 km
right ascension of ascending node: 30.3043°
argument of perigee: 224.0487°
revolutions per day: 9.03512592
mean anomaly at epoch: 107.5320°
orbit number at epoch: 81101

The dashed part of the orbit path shows where the satellite is in the earth's shadow,  

DLR